Location: Unspecified
(0.0000°N, 0.0000°E)
Time: 00:29:06
(UTC+00:00)

PAYLOAD C - Pass Details

Date: 17 June 2023
Orbit: 809 x 823 km, 98.7° (Epoch: 28 September)

Event Time Altitude Azimuth Distance (km) Brightness Sun altitude
Rises 05:07:55 0° 34° (NNE) 3,321 ? -12.1°
Reaches altitude 10° 05:10:33 10° 45° (NE) 2,394 ? -11.5°
Maximum altitude 05:15:02 28° 103° (ESE) 1,488 ? -10.5°
Drops below altitude 10° 05:19:31 10° 161° (SSE) 2,411 ? -9.5°
Sets 05:22:10 0° 172° (S) 3,347 ? -8.9°
